Time,TemperatureF,DewpointF,PressureIn,WindDirection,WindDirectionDegrees,WindSpeedMPH,WindSpeedGustMPH,Humidity,HourlyPrecipIn,Conditions,Clouds,dailyrainin,SolarRadiationWatts/m^2,SoftwareType,DateUTC
2013-04-07 00:00:00,41.0,34.3,30.32,SW,234,6.0,6.0,77,0.00,,,0.00,0,Wunderground v.1.15,2013-04-07 04:00:00,
2013-04-07 00:05:00,41.0,34.3,30.32,WSW,250,5.0,6.0,77,0.00,,,0.00,0,Wunderground v.1.15,2013-04-07 04:05:00,
2013-04-07 00:15:00,40.6,34.3,30.32,SW,227,5.0,8.0,78,0.00,,,0.00,0,Wunderground v.1.15,2013-04-07 04:15:00,
2013-04-07 00:20:00,40.6,34.6,30.32,SW,223,4.0,4.0,79,0.00,,,0.00,0,Wunderground v.1.15,2013-04-07 04:20:00,
2013-04-07 00:25:00,40.6,34.6,30.32,SW,221,3.0,4.0,79,0.00,,,0.00,0,Wunderground v.1.15,2013-04-07 04:25:00,
2013-04-07 00:30:00,40.5,34.5,30.31,WSW,257,3.0,3.0,79,0.00,,,0.00,0,Wunderground v.1.15,2013-04-07 04:30:00,
2013-04-07 00:35:00,40.3,34.3,30.31,WSW,246,3.0,5.0,79,0.00,,,0.00,0,Wunderground v.1.15,2013-04-07 04:35:00,
2013-04-07 00:45:00,40.1,34.1,30.31,West,260,3.0,3.0,79,0.00,,,0.00,0,Wunderground v.1.15,2013-04-07 04:45:00,
2013-04-07 00:50:00,40.1,34.4,30.32,WSW,257,3.0,3.0,80,0.00,,,0.00,0,Wunderground v.1.15,2013-04-07 04:50:00,
2013-04-07 01:00:00,39.7,34.0,30.31,SSW,211,2.0,6.0,80,0.00,,,0.00,0,Wunderground v.1.15,2013-04-07 05:00:00,
2013-04-07 01:10:00,39.8,34.1,30.31,SSW,213,3.0,5.0,80,0.00,,,0.00,0,Wunderground v.1.15,2013-04-07 05:10:00,
2013-04-07 01:15:00,39.8,33.8,30.31,SW,227,3.0,5.0,79,0.00,,,0.00,0,Wunderground v.1.15,2013-04-07 05:15:00,
2013-04-07 01:25:00,40.2,34.2,30.31,SW,219,4.0,5.0,79,0.00,,,0.00,0,Wunderground v.1.15,2013-04-07 05:25:00,
2013-04-07 01:30:00,40.3,34.3,30.31,WSW,250,3.0,5.0,79,0.00,,,0.00,0,Wunderground v.1.15,2013-04-07 05:30:00,
2013-04-07 01:40:00,39.9,33.9,30.31,SW,225,3.0,3.0,79,0.00,,,0.00,0,Wunderground v.1.15,2013-04-07 05:40:00,
2013-04-07 01:45:00,39.9,33.9,30.31,SW,229,3.0,3.0,79,0.00,,,0.00,0,Wunderground v.1.15,2013-04-07 05:45:00,
2013-04-07 01:50:00,39.8,33.8,30.30,SW,223,3.0,4.0,79,0.00,,,0.00,0,Wunderground v.1.15,2013-04-07 05:50:00,
2013-04-07 01:55:00,39.9,33.9,30.30,SSW,205,4.0,4.0,79,0.00,,,0.00,0,Wunderground v.1.15,2013-04-07 05:55:00,
2013-04-07 02:00:00,40.1,34.1,30.30,SW,228,4.0,4.0,79,0.00,,,0.00,0,Wunderground v.1.15,2013-04-07 06:00:00,
2013-04-07 02:10:00,39.6,33.6,30.29,SW,233,2.0,2.0,79,0.00,,,0.00,0,Wunderground v.1.15,2013-04-07 06:10:00,
2013-04-07 02:20:00,38.5,32.6,30.29,South,176,2.0,4.0,79,0.00,,,0.00,0,Wunderground v.1.15,2013-04-07 06:20:00,
2013-04-07 02:30:00,37.8,32.5,30.29,South,176,1.0,1.0,81,0.00,,,0.00,0,Wunderground v.1.15,2013-04-07 06:30:00,
2013-04-07 02:35:00,37.7,32.4,30.29,South,176,0.0,1.0,81,0.00,,,0.00,0,Wunderground v.1.15,2013-04-07 06:35:00,
2013-04-07 02:40:00,37.4,32.4,30.28,South,176,1.0,1.0,82,0.00,,,0.00,0,Wunderground v.1.15,2013-04-07 06:40:00,
2013-04-07 02:50:00,37.1,32.1,30.29,South,188,2.0,2.0,82,0.00,,,0.00,0,Wunderground v.1.15,2013-04-07 06:50:00,
2013-04-07 03:00:00,37.3,32.6,30.29,SW,215,3.0,5.0,83,0.00,,,0.00,0,Wunderground v.1.15,2013-04-07 07:00:00,
2013-04-07 03:10:00,39.0,34.3,30.29,SSW,204,4.0,4.0,83,0.00,,,0.00,0,Wunderground v.1.15,2013-04-07 07:10:00,
2013-04-07 03:15:00,39.4,34.7,30.29,SW,214,3.0,4.0,83,0.00,,,0.00,0,Wunderground v.1.15,2013-04-07 07:15:00,
2013-04-07 03:25:00,39.7,35.0,30.29,SSW,200,4.0,5.0,83,0.00,,,0.00,0,Wunderground v.1.15,2013-04-07 07:25:00,
2013-04-07 03:35:00,40.2,35.4,30.28,SW,215,5.0,6.0,83,0.00,,,0.00,0,Wunderground v.1.15,2013-04-07 07:35:00,
2013-04-07 03:45:00,40.2,35.1,30.29,SSW,200,3.0,5.0,82,0.00,,,0.00,0,Wunderground v.1.15,2013-04-07 07:45:00,
2013-04-07 03:50:00,40.3,35.5,30.28,SW,228,3.0,3.0,83,0.00,,,0.00,0,Wunderground v.1.15,2013-04-07 07:50:00,
2013-04-07 04:00:00,40.5,35.4,30.28,SW,215,5.0,5.0,82,0.00,,,0.00,0,Wunderground v.1.15,2013-04-07 08:00:00,
2013-04-07 04:10:00,40.7,35.6,30.28,SSW,205,5.0,5.0,82,0.00,,,0.00,0,Wunderground v.1.15,2013-04-07 08:10:00,
2013-04-07 04:15:00,40.7,35.9,30.29,SW,217,5.0,6.0,83,0.00,,,0.00,0,Wunderground v.1.15,2013-04-07 08:15:00,
2013-04-07 04:25:00,40.9,36.1,30.29,SW,227,6.0,6.0,83,0.00,,,0.00,0,Wunderground v.1.15,2013-04-07 08:25:00,
2013-04-07 04:35:00,40.9,36.1,30.29,SW,221,4.0,6.0,83,0.00,,,0.00,0,Wunderground v.1.15,2013-04-07 08:35:00,
2013-04-07 04:40:00,40.9,36.1,30.30,SW,228,5.0,7.0,83,0.00,,,0.00,0,Wunderground v.1.15,2013-04-07 08:40:00,
2013-04-07 04:45:00,41.0,36.2,30.29,SW,230,5.0,7.0,83,0.00,,,0.00,0,Wunderground v.1.15,2013-04-07 08:45:00,
2013-04-07 04:55:00,41.1,36.3,30.29,SW,234,6.0,6.0,83,0.00,,,0.00,0,Wunderground v.1.15,2013-04-07 08:55:00,
2013-04-07 05:05:00,41.2,36.4,30.30,SW,219,6.0,6.0,83,0.00,,,0.00,0,Wunderground v.1.15,2013-04-07 09:05:00,
2013-04-07 05:15:00,41.2,36.4,30.29,SW,225,5.0,8.0,83,0.00,,,0.00,0,Wunderground v.1.15,2013-04-07 09:15:00,
2013-04-07 05:20:00,41.4,36.6,30.29,SW,215,7.0,7.0,83,0.00,,,0.00,0,Wunderground v.1.15,2013-04-07 09:20:00,
2013-04-07 05:30:00,41.4,36.6,30.29,SSW,212,6.0,7.0,83,0.00,,,0.00,0,Wunderground v.1.15,2013-04-07 09:30:00,
2013-04-07 05:45:00,41.5,36.7,30.29,SW,232,5.0,11.0,83,0.00,,,0.00,0,Wunderground v.1.15,2013-04-07 09:45:00,
2013-04-07 05:55:00,41.5,36.7,30.29,SSW,209,5.0,6.0,83,0.00,,,0.00,0,Wunderground v.1.15,2013-04-07 09:55:00,
2013-04-07 06:10:00,41.6,36.8,30.30,SW,230,6.0,10.0,83,0.00,,,0.00,0,Wunderground v.1.15,2013-04-07 10:10:00,
2013-04-07 06:20:00,41.6,36.8,30.30,SSW,211,5.0,5.0,83,0.00,,,0.00,0,Wunderground v.1.15,2013-04-07 10:20:00,
2013-04-07 06:30:00,41.7,36.9,30.30,SW,229,5.0,5.0,83,0.00,,,0.00,11,Wunderground v.1.15,2013-04-07 10:30:00,
2013-04-07 06:40:00,41.8,37.0,30.31,SW,214,5.0,5.0,83,0.00,,,0.00,23,Wunderground v.1.15,2013-04-07 10:40:00,
2013-04-07 06:50:00,42.2,37.4,30.31,SSW,207,5.0,5.0,83,0.00,,,0.00,46,Wunderground v.1.15,2013-04-07 10:50:00,
2013-04-07 07:00:00,42.5,37.7,30.31,SSW,201,5.0,6.0,83,0.00,,,0.00,88,Wunderground v.1.15,2013-04-07 11:00:00,
2013-04-07 07:10:00,43.0,38.2,30.31,SSW,203,6.0,6.0,83,0.00,,,0.00,142,Wunderground v.1.15,2013-04-07 11:10:00,
2013-04-07 07:20:00,43.2,38.4,30.31,SSW,204,6.0,6.0,83,0.00,,,0.00,169,Wunderground v.1.15,2013-04-07 11:20:00,
2013-04-07 07:30:00,43.3,38.2,30.31,SSW,207,7.0,7.0,82,0.00,,,0.00,178,Wunderground v.1.15,2013-04-07 11:30:00,
2013-04-07 07:40:00,43.6,38.5,30.31,SSW,196,6.0,6.0,82,0.00,,,0.00,137,Wunderground v.1.15,2013-04-07 11:40:00,
2013-04-07 07:45:00,43.5,38.4,30.31,SSW,194,6.0,7.0,82,0.00,,,0.00,139,Wunderground v.1.15,2013-04-07 11:45:00,
2013-04-07 07:55:00,43.4,38.3,30.32,SSW,206,8.0,8.0,82,0.00,,,0.00,223,Wunderground v.1.15,2013-04-07 11:55:00,
2013-04-07 08:00:00,43.6,38.5,30.31,SSW,211,7.0,7.0,82,0.00,,,0.00,285,Wunderground v.1.15,2013-04-07 12:00:00,
2013-04-07 08:05:00,43.7,38.6,30.32,SSW,203,7.0,7.0,82,0.00,,,0.00,309,Wunderground v.1.15,2013-04-07 12:05:00,
2013-04-07 08:15:00,44.3,39.2,30.32,South,186,7.0,7.0,82,0.00,,,0.00,325,Wunderground v.1.15,2013-04-07 12:15:00,
2013-04-07 08:25:00,44.7,39.2,30.31,SSW,200,7.0,7.0,81,0.00,,,0.00,399,Wunderground v.1.15,2013-04-07 12:25:00,
2013-04-07 08:35:00,44.9,39.4,30.31,South,187,8.0,11.0,81,0.00,,,0.00,425,Wunderground v.1.15,2013-04-07 12:35:00,
2013-04-07 08:45:00,45.0,39.5,30.31,SSW,196,9.0,10.0,81,0.00,,,0.00,418,Wunderground v.1.15,2013-04-07 12:45:00,
2013-04-07 08:50:00,45.1,39.6,30.31,South,185,8.0,9.0,81,0.00,,,0.00,425,Wunderground v.1.15,2013-04-07 12:50:00,
2013-04-07 09:00:00,45.1,39.0,30.30,SSW,197,9.0,9.0,79,0.00,,,0.00,388,Wunderground v.1.15,2013-04-07 13:00:00,
2013-04-07 09:10:00,45.3,39.5,30.30,South,188,9.0,9.0,80,0.00,,,0.00,501,Wunderground v.1.15,2013-04-07 13:10:00,
2013-04-07 09:15:00,45.4,39.3,30.30,SSW,192,9.0,11.0,79,0.00,,,0.00,450,Wunderground v.1.15,2013-04-07 13:15:00,
2013-04-07 09:25:00,45.2,39.1,30.30,South,188,11.0,11.0,79,0.00,,,0.00,345,Wunderground v.1.15,2013-04-07 13:25:00,
2013-04-07 09:35:00,44.9,38.8,30.30,South,187,11.0,11.0,79,0.00,,,0.00,519,Wunderground v.1.15,2013-04-07 13:35:00,
2013-04-07 09:40:00,45.2,38.7,30.30,South,191,11.0,11.0,78,0.00,,,0.00,522,Wunderground v.1.15,2013-04-07 13:40:00,
2013-04-07 09:50:00,45.9,39.1,30.29,SSW,193,12.0,12.0,77,0.00,,,0.00,496,Wunderground v.1.15,2013-04-07 13:50:00,
2013-04-07 10:00:00,46.1,38.6,30.29,South,182,12.0,12.0,75,0.00,,,0.00,591,Wunderground v.1.15,2013-04-07 14:00:00,
2013-04-07 10:05:00,46.5,39.0,30.29,South,186,11.0,12.0,75,0.00,,,0.00,622,Wunderground v.1.15,2013-04-07 14:05:00,
2013-04-07 10:15:00,46.7,38.5,30.29,SSW,196,12.0,12.0,73,0.00,,,0.00,649,Wunderground v.1.15,2013-04-07 14:15:00,
2013-04-07 10:25:00,46.9,38.0,30.29,South,177,13.0,15.0,71,0.00,,,0.00,670,Wunderground v.1.15,2013-04-07 14:25:00,
2013-04-07 10:30:00,47.0,38.1,30.29,South,191,13.0,13.0,71,0.00,,,0.00,722,Wunderground v.1.15,2013-04-07 14:30:00,
2013-04-07 10:40:00,47.3,38.0,30.29,South,180,13.0,13.0,70,0.00,,,0.00,745,Wunderground v.1.15,2013-04-07 14:40:00,
2013-04-07 10:50:00,47.4,37.4,30.28,SSE,167,14.0,17.0,68,0.00,,,0.00,796,Wunderground v.1.15,2013-04-07 14:50:00,
2013-04-07 10:55:00,47.5,36.7,30.29,South,184,14.0,17.0,66,0.00,,,0.00,874,Wunderground v.1.15,2013-04-07 14:55:00,
2013-04-07 11:05:00,47.6,37.2,30.28,South,172,13.0,15.0,67,0.00,,,0.00,559,Wunderground v.1.15,2013-04-07 15:05:00,
2013-04-07 11:10:00,47.3,36.9,30.28,South,172,14.0,14.0,67,0.00,,,0.00,849,Wunderground v.1.15,2013-04-07 15:10:00,
2013-04-07 11:20:00,47.2,37.9,30.27,SSE,155,14.0,16.0,70,0.00,,,0.00,536,Wunderground v.1.15,2013-04-07 15:20:00,
2013-04-07 11:25:00,47.2,37.9,30.27,South,184,14.0,16.0,70,0.00,,,0.00,863,Wunderground v.1.15,2013-04-07 15:25:00,
2013-04-07 11:30:00,47.3,38.7,30.27,South,183,14.0,14.0,72,0.00,,,0.00,831,Wunderground v.1.15,2013-04-07 15:30:00,
2013-04-07 11:40:00,47.7,38.8,30.27,South,172,13.0,15.0,71,0.00,,,0.00,831,Wunderground v.1.15,2013-04-07 15:40:00,
2013-04-07 11:45:00,47.9,38.9,30.27,South,187,15.0,17.0,71,0.00,,,0.00,837,Wunderground v.1.15,2013-04-07 15:45:00,
2013-04-07 11:55:00,47.9,39.3,30.26,South,184,16.0,17.0,72,0.00,,,0.00,759,Wunderground v.1.15,2013-04-07 15:55:00,
2013-04-07 12:05:00,47.7,39.5,30.26,South,178,16.0,18.0,73,0.00,,,0.00,856,Wunderground v.1.15,2013-04-07 16:05:00,
2013-04-07 12:15:00,48.1,40.5,30.25,SSW,198,13.0,15.0,75,0.00,,,0.00,872,Wunderground v.1.15,2013-04-07 16:15:00,
2013-04-07 12:25:00,48.1,40.5,30.25,South,191,14.0,17.0,75,0.00,,,0.00,940,Wunderground v.1.15,2013-04-07 16:25:00,
2013-04-07 12:35:00,48.6,41.4,30.24,South,181,13.0,16.0,76,0.00,,,0.00,854,Wunderground v.1.15,2013-04-07 16:35:00,
2013-04-07 12:40:00,48.6,41.4,30.24,SSW,195,12.0,12.0,76,0.00,,,0.00,659,Wunderground v.1.15,2013-04-07 16:40:00,
2013-04-07 12:50:00,48.8,41.6,30.23,SSW,193,13.0,13.0,76,0.00,,,0.00,881,Wunderground v.1.15,2013-04-07 16:50:00,
2013-04-07 13:00:00,48.5,41.6,30.23,SSW,199,13.0,13.0,77,0.00,,,0.00,631,Wunderground v.1.15,2013-04-07 17:00:00,
2013-04-07 13:05:00,48.8,41.9,30.22,SSW,207,12.0,13.0,77,0.00,,,0.00,666,Wunderground v.1.15,2013-04-07 17:05:00,
2013-04-07 13:15:00,48.1,41.2,30.22,SSW,193,13.0,13.0,77,0.00,,,0.00,742,Wunderground v.1.15,2013-04-07 17:15:00,
2013-04-07 13:25:00,48.4,41.9,30.21,South,189,14.0,14.0,78,0.00,,,0.00,886,Wunderground v.1.15,2013-04-07 17:25:00,
2013-04-07 13:30:00,48.6,42.0,30.21,South,188,14.0,14.0,78,0.00,,,0.00,846,Wunderground v.1.15,2013-04-07 17:30:00,
2013-04-07 13:40:00,48.5,42.0,30.20,South,181,13.0,13.0,78,0.00,,,0.00,863,Wunderground v.1.15,2013-04-07 17:40:00,
2013-04-07 13:50:00,49.1,42.5,30.20,SSW,203,12.0,12.0,78,0.00,,,0.00,844,Wunderground v.1.15,2013-04-07 17:50:00,
2013-04-07 14:00:00,49.1,42.5,30.20,South,179,14.0,14.0,78,0.00,,,0.00,840,Wunderground v.1.15,2013-04-07 18:00:00,
2013-04-07 14:05:00,49.1,42.5,30.19,SSW,198,13.0,14.0,78,0.00,,,0.00,816,Wunderground v.1.15,2013-04-07 18:05:00,
2013-04-07 14:15:00,48.8,42.6,30.19,SSW,198,14.0,17.0,79,0.00,,,0.00,738,Wunderground v.1.15,2013-04-07 18:15:00,
2013-04-07 14:25:00,49.0,43.1,30.18,SSW,199,14.0,18.0,80,0.00,,,0.00,791,Wunderground v.1.15,2013-04-07 18:25:00,
2013-04-07 14:35:00,49.3,43.4,30.18,SSW,197,13.0,17.0,80,0.00,,,0.00,812,Wunderground v.1.15,2013-04-07 18:35:00,
2013-04-07 14:40:00,49.1,42.9,30.18,South,184,15.0,15.0,79,0.00,,,0.00,796,Wunderground v.1.15,2013-04-07 18:40:00,
2013-04-07 14:50:00,49.0,43.1,30.18,SSW,203,16.0,16.0,80,0.00,,,0.00,793,Wunderground v.1.15,2013-04-07 18:50:00,
2013-04-07 15:05:00,49.0,43.1,30.17,South,190,16.0,19.0,80,0.00,,,0.00,728,Wunderground v.1.15,2013-04-07 19:05:00,
2013-04-07 15:10:00,49.1,43.2,30.17,South,191,16.0,17.0,80,0.00,,,0.00,712,Wunderground v.1.15,2013-04-07 19:10:00,
2013-04-07 15:20:00,48.5,42.9,30.16,SSW,208,15.0,16.0,81,0.00,,,0.00,489,Wunderground v.1.15,2013-04-07 19:20:00,
2013-04-07 15:25:00,48.7,43.1,30.15,South,182,14.0,16.0,81,0.00,,,0.00,573,Wunderground v.1.15,2013-04-07 19:25:00,
2013-04-07 15:35:00,48.3,42.7,30.15,SSW,194,17.0,17.0,81,0.00,,,0.00,345,Wunderground v.1.15,2013-04-07 19:35:00,
2013-04-07 15:40:00,48.3,42.7,30.14,South,178,17.0,20.0,81,0.00,,,0.00,413,Wunderground v.1.15,2013-04-07 19:40:00,
2013-04-07 15:55:00,48.4,42.8,30.13,South,187,18.0,19.0,81,0.00,,,0.00,541,Wunderground v.1.15,2013-04-07 19:55:00,
2013-04-07 16:00:00,48.6,43.0,30.13,South,186,18.0,24.0,81,0.00,,,0.00,527,Wunderground v.1.15,2013-04-07 20:00:00,
2013-04-07 16:10:00,48.7,43.5,30.12,South,179,18.0,18.0,82,0.00,,,0.00,612,Wunderground v.1.15,2013-04-07 20:10:00,
2013-04-07 16:20:00,48.6,43.4,30.12,SSW,194,18.0,18.0,82,0.00,,,0.00,443,Wunderground v.1.15,2013-04-07 20:20:00,
2013-04-07 16:30:00,48.7,43.5,30.12,SSW,198,16.0,19.0,82,0.00,,,0.00,482,Wunderground v.1.15,2013-04-07 20:30:00,
2013-04-07 16:40:00,48.7,43.1,30.11,South,188,16.0,16.0,81,0.00,,,0.00,431,Wunderground v.1.15,2013-04-07 20:40:00,
2013-04-07 16:45:00,48.8,43.2,30.11,South,191,16.0,19.0,81,0.00,,,0.00,424,Wunderground v.1.15,2013-04-07 20:45:00,
2013-04-07 16:55:00,48.7,43.1,30.11,South,186,17.0,22.0,81,0.00,,,0.00,464,Wunderground v.1.15,2013-04-07 20:55:00,
2013-04-07 17:05:00,48.9,43.3,30.10,SSW,201,18.0,18.0,81,0.00,,,0.00,406,Wunderground v.1.15,2013-04-07 21:05:00,
2013-04-07 17:15:00,48.3,42.7,30.09,SSW,192,19.0,19.0,81,0.00,,,0.00,397,Wunderground v.1.15,2013-04-07 21:15:00,
2013-04-07 17:25:00,48.4,43.2,30.09,South,190,18.0,20.0,82,0.00,,,0.00,167,Wunderground v.1.15,2013-04-07 21:25:00,
2013-04-07 17:30:00,48.2,43.0,30.09,SSW,196,18.0,21.0,82,0.00,,,0.00,192,Wunderground v.1.15,2013-04-07 21:30:00,
2013-04-07 17:40:00,48.1,42.9,30.09,South,186,18.0,23.0,82,0.00,,,0.00,246,Wunderground v.1.15,2013-04-07 21:40:00,
2013-04-07 17:55:00,47.6,42.4,30.08,South,190,19.0,20.0,82,0.00,,,0.00,111,Wunderground v.1.15,2013-04-07 21:55:00,
2013-04-07 18:00:00,47.7,42.5,30.07,South,191,19.0,23.0,82,0.00,,,0.00,109,Wunderground v.1.15,2013-04-07 22:00:00,
2013-04-07 18:05:00,47.6,42.4,30.07,SSW,195,20.0,23.0,82,0.00,,,0.00,114,Wunderground v.1.15,2013-04-07 22:05:00,
2013-04-07 18:15:00,47.5,42.3,30.07,SSW,196,19.0,20.0,82,0.00,,,0.00,84,Wunderground v.1.15,2013-04-07 22:15:00,
2013-04-07 18:25:00,47.3,42.4,30.07,SSW,197,19.0,19.0,83,0.00,,,0.00,79,Wunderground v.1.15,2013-04-07 22:25:00,
2013-04-07 18:30:00,47.4,42.5,30.08,SSW,195,19.0,19.0,83,0.00,,,0.00,81,Wunderground v.1.15,2013-04-07 22:30:00,
2013-04-07 18:40:00,47.4,42.5,30.07,SW,231,17.0,18.0,83,0.00,,,0.00,58,Wunderground v.1.15,2013-04-07 22:40:00,
2013-04-07 18:45:00,47.4,42.5,30.07,SSW,195,17.0,20.0,83,0.00,,,0.00,54,Wunderground v.1.15,2013-04-07 22:45:00,
2013-04-07 18:50:00,47.3,42.4,30.06,SSW,199,18.0,22.0,83,0.00,,,0.00,42,Wunderground v.1.15,2013-04-07 22:50:00,
2013-04-07 19:00:00,47.4,42.5,30.05,South,183,19.0,19.0,83,0.00,,,0.00,21,Wunderground v.1.15,2013-04-07 23:00:00,
2013-04-07 19:10:00,47.2,42.3,30.06,SSW,195,18.0,22.0,83,0.00,,,0.00,11,Wunderground v.1.15,2013-04-07 23:10:00,
2013-04-07 19:20:00,47.3,42.4,30.06,SSW,203,18.0,18.0,83,0.00,,,0.00,9,Wunderground v.1.15,2013-04-07 23:20:00,
2013-04-07 19:25:00,47.2,42.3,30.06,South,182,18.0,19.0,83,0.00,,,0.00,0,Wunderground v.1.15,2013-04-07 23:25:00,
2013-04-07 19:35:00,47.2,42.3,30.07,SSW,194,18.0,21.0,83,0.00,,,0.00,0,Wunderground v.1.15,2013-04-07 23:35:00,
2013-04-07 19:45:00,47.2,42.3,30.07,SSW,208,16.0,19.0,83,0.00,,,0.00,0,Wunderground v.1.15,2013-04-07 23:45:00,
2013-04-07 19:55:00,47.3,42.4,30.07,SSW,198,17.0,17.0,83,0.00,,,0.00,0,Wunderground v.1.15,2013-04-07 23:55:00,
2013-04-07 20:05:00,47.3,42.4,30.07,SSW,200,15.0,16.0,83,0.00,,,0.00,0,Wunderground v.1.15,2013-04-08 00:05:00,
2013-04-07 20:15:00,47.5,42.6,30.07,South,191,15.0,18.0,83,0.00,,,0.00,0,Wunderground v.1.15,2013-04-08 00:15:00,
2013-04-07 20:20:00,47.6,42.7,30.07,SW,214,15.0,20.0,83,0.00,,,0.00,0,Wunderground v.1.15,2013-04-08 00:20:00,
2013-04-07 20:30:00,47.6,42.7,30.08,SSW,201,15.0,15.0,83,0.00,,,0.00,0,Wunderground v.1.15,2013-04-08 00:30:00,
2013-04-07 20:35:00,47.6,42.7,30.08,SSW,198,15.0,15.0,83,0.00,,,0.00,0,Wunderground v.1.15,2013-04-08 00:35:00,
2013-04-07 20:45:00,47.8,42.9,30.08,SSW,213,13.0,18.0,83,0.00,,,0.00,0,Wunderground v.1.15,2013-04-08 00:45:00,
2013-04-07 20:55:00,47.7,42.8,30.08,SSW,199,13.0,14.0,83,0.00,,,0.00,0,Wunderground v.1.15,2013-04-08 00:55:00,
2013-04-07 21:05:00,47.6,42.7,30.09,SW,217,13.0,17.0,83,0.00,,,0.00,0,Wunderground v.1.15,2013-04-08 01:05:00,
2013-04-07 21:15:00,47.5,42.6,30.09,SSW,192,11.0,16.0,83,0.00,,,0.00,0,Wunderground v.1.15,2013-04-08 01:15:00,
2013-04-07 21:20:00,47.5,42.6,30.08,SSW,198,11.0,13.0,83,0.00,,,0.00,0,Wunderground v.1.15,2013-04-08 01:20:00,
2013-04-07 21:30:00,47.6,42.7,30.08,SSW,192,13.0,13.0,83,0.00,,,0.00,0,Wunderground v.1.15,2013-04-08 01:30:00,
2013-04-07 21:40:00,47.7,42.8,30.07,SSW,192,13.0,19.0,83,0.00,,,0.00,0,Wunderground v.1.15,2013-04-08 01:40:00,
2013-04-07 21:50:00,47.7,42.5,30.07,SSW,201,12.0,12.0,82,0.00,,,0.00,0,Wunderground v.1.15,2013-04-08 01:50:00,
2013-04-07 22:00:00,47.6,42.4,30.06,SSW,207,12.0,14.0,82,0.00,,,0.00,0,Wunderground v.1.15,2013-04-08 02:00:00,
2013-04-07 22:10:00,47.7,42.5,30.06,SSW,211,14.0,14.0,82,0.00,,,0.00,0,Wunderground v.1.15,2013-04-08 02:10:00,
2013-04-07 22:15:00,47.7,42.5,30.06,South,190,13.0,14.0,82,0.00,,,0.00,0,Wunderground v.1.15,2013-04-08 02:15:00,
2013-04-07 22:25:00,47.7,42.5,30.06,SSW,195,11.0,13.0,82,0.00,,,0.00,0,Wunderground v.1.15,2013-04-08 02:25:00,
2013-04-07 22:40:00,47.5,42.3,30.06,WSW,240,6.0,7.0,82,0.00,,,0.00,0,Wunderground v.1.15,2013-04-08 02:40:00,
2013-04-07 22:45:00,47.4,42.2,30.06,WSW,244,5.0,7.0,82,0.00,,,0.00,0,Wunderground v.1.15,2013-04-08 02:45:00,
2013-04-07 22:55:00,47.4,42.2,30.06,SW,226,7.0,7.0,82,0.00,,,0.00,0,Wunderground v.1.15,2013-04-08 02:55:00,
2013-04-07 23:05:00,47.3,42.1,30.06,SW,224,7.0,8.0,82,0.00,,,0.00,0,Wunderground v.1.15,2013-04-08 03:05:00,
2013-04-07 23:15:00,47.3,42.1,30.06,SW,226,8.0,11.0,82,0.00,,,0.00,0,Wunderground v.1.15,2013-04-08 03:15:00,
2013-04-07 23:25:00,47.2,41.7,30.05,WSW,245,8.0,8.0,81,0.00,,,0.00,0,Wunderground v.1.15,2013-04-08 03:25:00,
2013-04-07 23:30:00,47.2,41.7,30.05,SSW,212,8.0,8.0,81,0.00,,,0.00,0,Wunderground v.1.15,2013-04-08 03:30:00,
2013-04-07 23:40:00,47.1,41.6,30.05,SW,223,7.0,7.0,81,0.00,,,0.00,0,Wunderground v.1.15,2013-04-08 03:40:00,
2013-04-07 23:45:00,47.1,41.6,30.05,WSW,254,6.0,7.0,81,0.00,,,0.00,0,Wunderground v.1.15,2013-04-08 03:45:00,
2013-04-07 23:55:00,47.1,41.6,30.04,SW,232,8.0,10.0,81,0.00,,,0.00,0,Wunderground v.1.15,2013-04-08 03:55:00,